GFSSE_850_dewp_282.txt.gz
Dewpoint
11 8 2 4 8 9 11 11 11 11 9 6 5 6 8 8 8 5 8 10 10 9 9 9 9 7 4 8 2 1 1 -1 2 1 0 -0 -0 -0 -0 0 4 9 -0
12 6 2 3 8 11 11 12 12 11 9 7 7 9 9 8 8 6 7 10 10 8 7 8 9 6 4 8 3 2 1 3 6 5 1 0 -0 -0 -1 -0 5 2 -1
12 3 1 1 5 10 11 12 12 11 9 9 9 10 9 8 8 7 5 9 9 7 6 8 6 3 3 4 3 4 4 4 4 3 5 11 9 2 2 2 1 1 0
12 5 1 -1 -2 3 9 10 10 11 11 11 10 10 9 8 9 10 6 5 6 7 7 4 2 0 1 1 2 3 4 3 3 3 11 11 11 1 1 1 1 1 1
9 11 -1 -2 -2 -0 3 5 8 8 11 11 11 10 9 8 8 10 9 9 8 7 6 2 0 0 -0 0 1 1 2 1 1 6 9 11 10 -0 -0 0 0 0 1
12 11 -1 -1 0 0 -2 -3 2 6 8 9 9 8 7 8 8 6 5 9 9 6 4 0 1 0 -0 -0 -1 -1 -1 -1 -1 8 9 3 11 0 -2 -2 -1 -1 -1
13 10 1 2 2 0 -1 -1 2 2 3 4 5 6 7 7 8 7 3 3 4 4 2 0 1 0 -0 -0 -1 -2 -3 -4 6 7 8 9 8 -3 -3 -3 -2 -2 -1
13 13 10 3 3 2 3 3 2 1 1 2 5 7 6 6 6 8 5 2 2 2 1 0 1 0 0 -0 -1 -2 -4 -4 0 8 7 7 2 -2 -2 -2 -1 -1 -0
13 13 13 13 8 4 3 4 4 3 2 2 4 5 7 7 6 4 4 4 2 1 1 1 1 1 1 2 1 -1 1 3 5 8 9 8 3 -1 -1 -1 -0 0 1
10 7 5 5 9 7 12 4 3 4 5 4 4 5 5 6 7 7 5 3 4 2 1 1 1 2 4 4 5 6 4 5 2 9 9 10 5 4 4 3 2 1 1
11 10 9 7 6 12 8 7 4 4 5 5 5 4 4 8 8 6 7 6 4 3 2 2 1 2 4 5 5 6 7 8 8 9 9 10 8 9 8 7 6 6 5
12 13 12 10 9 8 13 10 11 13 11 10 11 12 6 12 12 12 10 3 3 4 3 2 2 2 2 7 9 6 6 10 10 8 8 9 8 9 10 10 10 8 8
5 8 10 12 12 11 10 14 13 13 13 13 12 13 13 13 13 9 10 5 2 1 4 5 3 3 6 9 9 10 9 10 9 8 8 7 7 8 10 10 11 10 10
1 1 2 6 10 12 12 12 13 14 13 11 13 12 13 13 13 13 11 11 11 11 9 10 10 11 11 11 10 9 9 8 8 8 8 8 7 8 9 10 11 11 10
-0 -1 -2 -1 0 6 11 12 12 13 14 14 12 11 10 9 13 13 13 13 12 11 10 8 9 9 10 10 10 10 9 8 7 7 7 9 6 8 9 10 10 10 10
-0 -1 -1 -1 -2 -2 -0 6 12 15 15 14 14 14 14 12 11 11 13 13 13 13 12 12 11 9 9 9 9 10 10 9 8 7 5 6 7 6 8 9 10 10 10
0 -1 -3 -1 -0 -0 -2 -3 1 9 12 14 15 14 14 13 13 12 13 13 13 13 13 13 12 12 11 9 8 8 8 9 8 8 7 5 4 4 4 6 8 9 8
-1 -2 -3 -3 -2 1 2 2 2 4 6 11 14 14 14 14 14 12 12 14 14 14 14 13 13 12 11 11 9 8 7 7 8 8 7 7 5 4 4 4 3 7 8
-4 -5 -5 -4 -3 -2 2 4 7 9 11 12 14 14 14 14 14 14 12 13 14 14 14 13 13 13 12 12 10 10 9 8 8 6 7 7 7 5 4 3 4 3 1
0 -0 -2 -3 -3 -2 -1 4 8 9 11 12 12 13 12 13 14 14 14 13 12 12 13 13 13 13 13 13 11 10 10 10 10 10 9 9 6 6 6 6 5 4 2
1 1 0 -2 -2 -2 -1 2 5 6 6 9 10 11 11 11 12 13 14 14 13 13 12 12 13 13 13 13 12 12 11 10 10 11 11 10 9 8 7 7 7 6 6
-2 -1 0 0 -2 -2 -0 0 2 4 4 5 7 9 10 10 11 12 12 13 13 13 13 13 13 13 13 13 12 11 10 8 8 8 8 11 10 9 8 8 9 10 10
-3 -3 -2 -1 -0 -3 -1 -1 2 2 2 2 2 4 6 8 9 10 10 11 11 12 12 13 13 13 13 13 13 13 11 9 7 7 7 10 10 10 10 10 10 10 10
-3 -3 -2 -2 -1 -1 -5 -0 -1 1 1 2 2 1 1 4 7 8 9 9 9 9 10 11 11 11 11 12 13 13 13 12 13 12 9 9 9 11 11 11 11 11 11
-3 -3 -2 -2 -2 -2 -1 -2 -1 -0 -1 -1 -1 -2 -2 -3 -3 -2 3 6 7 8 8 8 9 9 9 10 10 10 11 11 11 13 13 11 11 10 10 11 12 11 11
-3 -3 -2 -2 -2 -3 -6 -8 -6 -6 -3 -6 -6 -4 -6 -12 -10 -7 -5 -4 -3 -1 3 6 7 8 8 8 8 8 8 8 8 9 9 9 9 11 11 11 11 12 12

GFSSE_850_dewp_285.txt.gz
Dewpoint
10 3 1 3 8 8 11 11 10 11 9 7 7 6 9 9 6 8 11 11 11 10 9 9 5 5 8 3 1 1 -1 1 1 1 1 2 3 3 7 8 13 11 2
11 4 0 4 8 10 11 11 11 11 8 7 6 8 9 9 6 7 11 11 10 10 9 10 6 2 6 4 1 1 0 4 3 0 -0 -0 -1 -1 -0 6 11 1 -0
11 3 -1 4 9 11 11 12 12 11 8 7 7 10 9 9 8 6 10 10 10 8 9 10 6 1 4 2 2 3 2 2 2 5 11 12 5 1 1 1 1 0 -0
10 9 7 1 5 9 11 12 12 11 9 9 9 10 10 9 9 7 7 9 7 8 8 9 6 1 1 1 2 2 2 2 1 8 11 10 11 -0 -0 0 0 0 0
10 10 -1 -1 2 6 8 11 11 11 10 11 10 10 9 8 9 11 8 7 8 8 8 5 4 2 1 1 2 1 1 1 1 9 10 10 10 -1 -2 -2 -2 -1 2
10 11 -2 -1 2 6 7 10 12 11 11 11 11 10 8 8 9 9 8 10 10 8 6 3 2 2 2 2 1 1 1 -1 5 10 8 9 12 8 -3 -3 -2 -1 -1
11 10 1 1 2 2 4 8 11 11 11 10 9 8 8 8 8 7 4 5 6 6 5 2 2 1 1 1 0 -0 -1 -3 9 9 7 9 10 -2 -3 -3 -2 -2 -1
12 12 10 3 1 1 3 5 7 9 9 7 7 7 7 7 8 8 6 2 2 2 1 1 2 1 1 0 -1 -2 -4 -4 3 7 6 6 8 -2 -2 -2 -1 -1 -0
12 12 14 13 5 1 1 2 4 5 5 7 8 8 7 8 7 6 6 5 2 1 1 0 0 1 1 1 0 -1 -3 -3 -0 10 8 7 7 2 -1 -1 -1 -0 0
9 7 9 12 14 13 13 3 2 3 3 5 6 7 7 7 7 7 6 5 4 3 1 1 0 0 1 2 2 2 1 -1 1 7 8 8 8 6 3 3 2 2 1
11 9 7 5 10 14 13 12 4 4 4 4 3 3 5 10 13 11 10 8 7 4 3 2 1 1 1 2 2 3 4 3 9 7 7 8 9 7 8 8 8 7 6
9 11 11 9 8 7 14 13 13 14 13 11 13 13 12 12 12 12 13 12 6 3 4 3 3 2 2 3 9 8 7 5 10 8 7 7 8 8 8 9 9 10 10
7 8 9 11 12 10 9 12 14 13 13 13 14 14 13 13 13 12 11 12 11 9 8 8 8 3 4 9 8 9 10 10 8 8 7 7 7 7 8 8 9 10 11
5 6 6 4 8 11 12 12 12 14 13 14 13 14 14 13 14 13 12 11 10 10 11 11 10 10 11 11 10 10 10 9 8 7 6 7 7 7 7 7 7 8 10
3 4 2 0 -2 2 8 11 12 12 13 13 14 14 14 14 14 13 13 13 12 11 10 11 11 9 9 10 11 11 10 10 9 8 6 6 6 7 5 7 7 8 9
1 3 0 -0 -1 -2 -2 0 9 14 14 14 14 14 13 14 14 14 14 13 12 13 12 11 11 11 10 9 9 9 9 10 9 9 7 6 5 5 4 -0 5 6 7
0 2 1 1 -2 -1 -0 5 9 3 9 13 14 14 14 14 14 13 13 14 13 13 12 12 12 12 12 11 10 9 8 8 9 9 9 8 7 5 4 3 -1 -0 5
0 1 3 1 -2 2 2 10 5 6 10 12 12 14 14 14 14 14 14 13 14 13 13 14 13 13 12 11 10 10 9 8 7 7 8 8 8 7 5 4 3 2 -0
1 1 2 2 -0 3 5 9 9 8 11 12 12 12 13 13 13 14 14 14 13 13 13 13 13 13 13 13 11 10 10 9 9 8 7 6 7 7 6 6 4 4 3
1 2 1 -1 -3 3 4 6 6 8 9 9 10 10 11 11 11 12 13 14 14 14 13 13 13 12 13 13 11 10 10 9 9 9 9 9 9 9 8 7 6 6 5
0 1 1 2 2 2 3 3 4 5 5 7 7 7 9 10 10 10 11 11 13 13 13 13 13 14 13 12 13 12 11 10 10 9 9 9 9 9 9 9 8 7 6
-2 -1 -1 0 1 1 2 3 3 3 3 4 4 5 5 6 8 9 10 10 11 11 12 12 12 13 13 13 13 13 13 11 9 9 9 9 9 10 10 9 9 8 8
-2 -2 -2 -1 -1 -1 1 2 2 2 2 3 3 4 4 2 2 5 7 8 9 9 10 10 10 10 10 11 13 12 13 12 11 9 8 7 7 9 10 9 9 9 9
-3 -2 -2 -2 -1 -1 -1 0 1 1 1 1 1 2 2 3 -1 -3 -3 -1 4 7 8 8 8 8 9 9 10 11 11 10 11 12 10 11 11 12 12 11 11 10 10
-4 -3 -2 -2 -2 -1 -1 -0 -1 -1 -2 -1 -1 -0 -0 -1 -5 -14 -10 -8 -7 -5 -4 -0 3 6 7 7 7 8 8 9 10 9 9 10 9 9 10 10 12 12 12
-3 -3 -2 -3 -3 -2 -2 -1 -1 -0 -1 -1 -1 -2 -2 -1 -2 -14 -12 -13 -15 -15 -15 -14 -10 -7 -5 -2 1 3 6 5 6 7 8 8 8 7 7 7 6 8 9

GFSSE_850_dewp_291.txt.gz
Dewpoint
1 3 6 8 9 11 11 10 9 7 6 8 8 7 6 6 7 8 8 8 8 7 5 5 7 2 3 2 1 -1 -1 -1 -0 -0 -0 -1 -0 1 5 4 2 0 -1
-0 3 7 7 10 11 11 11 10 7 7 8 9 8 6 6 7 8 9 7 5 8 8 4 5 4 1 0 -1 2 2 -1 -1 -0 -1 -1 -1 -0 5 4 1 -1 -1
-1 3 8 9 11 11 11 12 10 8 8 9 10 9 8 7 7 9 9 8 5 6 8 4 5 5 1 2 1 2 1 10 11 11 11 9 -1 -1 0 1 -0 -1 -1
0 2 6 9 10 11 12 12 11 9 9 9 10 9 9 8 7 7 8 7 7 6 5 4 2 4 2 2 2 2 4 11 12 13 13 11 11 -3 -2 -2 -1 -1 -2
7 -2 1 5 8 9 9 11 11 10 10 10 10 9 7 8 9 9 8 8 8 8 5 2 1 1 2 2 2 1 1 9 11 12 13 12 11 9 -1 -3 -3 -2 1
8 -3 -3 -3 -0 3 5 7 8 10 11 10 10 9 8 8 7 5 4 9 9 7 6 2 1 1 0 -0 -0 -0 -1 9 10 11 12 11 10 3 6 -3 -3 -2 -2
-2 -2 -1 -1 -2 -2 1 4 6 7 7 8 8 7 7 8 8 7 5 1 2 3 3 1 2 1 0 -0 -1 -3 -3 7 9 8 11 10 8 5 4 -3 -3 -2 -2
6 3 0 -2 -2 -1 1 3 5 5 4 5 5 6 6 6 6 6 7 4 2 1 0 0 0 1 0 -0 -1 -3 -5 -5 5 5 10 10 9 8 6 6 -2 -2 -1
10 7 10 10 11 5 0 1 1 2 2 3 5 6 6 6 6 6 6 4 4 4 2 0 -0 -0 -0 -1 -2 -2 -3 -7 -5 5 8 8 9 8 7 7 4 -1 -2
10 10 9 8 12 12 11 2 1 1 1 1 2 3 3 3 11 13 12 9 7 4 4 3 2 0 -0 -0 -0 -0 -1 -3 -5 4 5 7 9 9 8 8 6 2 4
7 9 12 12 12 13 14 13 9 9 6 5 3 3 6 5 12 12 12 10 7 9 6 -1 0 2 2 1 0 -0 1 3 9 3 -3 8 9 9 9 8 8 6 6
9 10 8 8 12 13 13 13 13 14 14 13 13 12 12 13 12 12 12 11 11 11 10 10 9 3 5 6 4 2 1 8 9 10 1 7 8 9 8 7 7 6 5
7 8 10 10 9 13 13 14 15 15 14 14 14 13 13 13 13 13 12 11 12 12 11 10 10 10 8 10 10 9 4 7 10 10 11 9 9 9 8 7 7 7 7
6 4 3 6 10 11 10 14 14 13 14 14 13 14 14 12 13 12 13 14 14 13 12 13 11 11 11 10 8 10 10 9 8 9 10 10 9 8 8 8 8 8 7
1 1 -1 -0 1 5 9 11 12 12 13 13 13 13 14 14 13 13 12 13 13 13 14 14 13 13 12 11 11 9 9 9 9 8 5 9 9 8 8 7 7 6 5
0 -1 -3 -3 0 3 4 6 9 12 13 13 13 13 14 14 13 13 13 13 13 13 12 12 11 12 13 13 12 11 11 10 8 9 9 7 6 5 4 4 4 6 6
-1 -3 -5 -4 -0 6 8 7 4 3 5 8 11 12 13 13 14 13 13 13 13 13 13 12 12 12 12 12 13 13 12 12 11 10 9 9 9 8 8 7 6 6 5
-0 -4 -5 -3 4 8 8 7 6 5 6 7 8 9 10 11 11 12 13 13 13 13 13 13 13 12 12 13 12 12 12 12 13 12 11 11 10 9 8 7 7 7 7
1 -2 -2 -2 3 7 7 7 7 7 6 4 4 6 7 8 9 9 9 9 9 10 10 11 12 13 12 12 12 12 12 11 12 11 11 12 11 11 10 9 9 9 8
-0 -2 -2 -2 -2 6 6 5 5 5 4 3 1 1 1 2 3 4 5 5 6 7 8 9 9 10 10 11 11 11 10 11 11 12 11 11 11 12 11 11 10 10 10
-5 -7 -4 -1 -1 2 4 4 3 4 4 3 2 1 -0 -1 -1 -0 2 3 3 3 5 6 6 6 6 7 8 8 8 9 10 10 12 11 12 12 12 12 12 11 12
-2 -3 -7 -3 -1 0 3 3 3 3 3 3 2 0 -5 -8 -6 -4 -3 -4 -3 -3 -3 -2 -0 2 4 5 6 7 7 6 7 7 8 8 7 7 8 10 9 11 11
-2 -2 -3 -7 -4 -1 2 2 1 1 1 -0 -1 -3 -8 -13 -13 -12 -12 -12 -12 -12 -12 -12 -12 -12 -11 -7 -3 2 5 5 2 4 3 4 4 3 4 5 7 8 9
-2 -2 -4 -7 -11 -6 -1 -2 -3 -4 -3 -2 -2 -3 -10 -14 -14 -14 -14 -14 -16 -16 -15 -11 -11 -11 -14 -13 -10 -3 1 2 4 3 -5 -3 -2 -3 -4 -5 1 3 5
-2 -2 -3 -7 -10 -10 -9 -5 -8 -4 -4 -5 -6 -8 -11 -18 -23 -25 -27 -30 -31 -31 -29 -24 -23 -23 -20 -15 -10 -7 -7 -3 1 2 3 -6 -13 -8 -10 -8 -8 -7 -7
-2 -2 -3 -6 -8 -9 -8 -6 -6 -9 -7 -9 -11 -17 -20 -26 -30 -30 -30 -30 -30 -31 -30 -27 -26 -26 -25 -20 -18 -18 -11 -3 1 0 -0 1 -0 -17 -14 -8 -8 -11 -9

GFSSE_850_dewp_294.txt.gz
Dewpoint
6 9 9 10 11 10 10 8 7 8 9 8 6 7 8 8 7 6 4 5 5 4 6 6 2 6 4 3 1 0 2 4 4 3 2 1 1 3 3 -1 -1 -1 -1
7 8 9 10 11 11 10 9 7 8 9 8 6 6 7 8 8 7 6 4 6 6 3 5 2 1 0 -1 2 1 -0 -0 0 1 2 -1 -1 -0 2 -1 -2 -2 -2
4 8 9 11 11 11 11 9 8 8 9 9 7 5 6 6 7 8 7 5 5 5 4 5 4 1 1 2 2 2 7 9 7 10 6 6 4 -1 -2 -2 -2 -2 -2
2 9 10 11 11 11 11 10 9 9 9 9 8 6 6 6 5 4 5 6 6 4 2 2 4 1 1 2 2 7 10 11 12 12 11 10 8 4 -3 -3 -3 -3 -3
3 8 10 10 10 10 9 8 9 9 9 9 7 6 7 7 6 4 6 6 4 3 1 0 1 2 2 2 2 1 9 11 12 12 9 10 10 8 8 -4 -3 -3 -1
-2 0 3 6 6 6 6 6 8 8 8 8 6 6 6 6 5 5 3 3 2 1 -0 -0 -0 -1 -0 -0 0 0 4 10 10 12 11 9 9 9 0 0 -3 -3 -2
-1 1 0 0 1 2 3 6 7 6 6 6 5 5 5 5 5 6 2 1 1 0 -1 -2 -2 -2 -2 -2 -3 -2 1 8 10 9 11 10 9 9 3 6 3 -3 -2
2 1 1 1 1 2 2 3 3 2 2 3 4 4 5 6 4 4 3 2 1 -0 -1 -1 -2 -1 -2 -3 -4 -4 -5 4 7 8 8 9 9 9 8 7 7 5 -2
4 6 11 10 4 2 2 1 0 -0 1 2 4 4 4 6 7 6 5 6 4 4 2 0 -1 -2 -2 -1 -2 -3 -4 -7 -3 6 3 7 8 9 9 7 8 7 1
8 8 9 9 10 11 5 3 2 2 2 1 1 2 2 6 11 12 11 10 6 5 2 0 1 1 -0 -1 -1 -2 -2 -3 -4 -7 1 2 8 9 9 8 8 8 7
13 13 12 11 12 11 12 9 13 11 13 10 7 12 11 12 12 12 12 11 11 11 10 10 9 3 1 2 1 0 -0 -1 3 5 -0 -2 6 9 9 9 9 8 7
9 13 14 14 14 13 13 13 14 13 13 13 13 13 13 13 13 12 13 12 12 13 12 11 10 10 8 7 7 5 2 0 6 8 8 2 3 8 9 9 9 9 8
8 10 10 12 14 14 13 12 13 13 13 12 12 12 12 12 13 11 12 11 12 13 12 13 12 11 11 11 10 10 7 6 6 7 9 9 9 9 9 9 9 9 8
5 6 9 11 10 13 14 14 14 14 14 14 14 13 14 13 13 13 12 12 13 13 12 11 12 12 12 11 11 11 10 9 8 7 6 6 7 9 9 9 9 8 8
2 1 3 6 10 11 12 14 14 14 14 14 14 14 13 14 14 13 13 13 13 13 13 13 13 13 13 13 12 11 10 11 10 10 9 8 9 8 6 6 6 6 7
-1 -2 1 1 4 4 6 9 10 12 12 12 13 13 13 13 14 13 13 13 13 13 13 13 13 13 13 13 13 13 12 11 12 12 11 9 9 9 9 8 8 8 8
-2 -3 -2 -2 5 5 4 3 2 1 4 5 6 9 11 12 12 12 12 12 13 13 12 13 13 13 12 12 13 13 13 12 12 12 12 12 11 11 11 10 10 9 9
-2 -3 -0 3 6 7 6 5 5 3 3 3 3 6 7 7 10 10 10 10 10 10 10 10 11 11 12 12 12 11 11 11 11 12 12 12 12 12 12 12 11 11 10
-2 -2 -0 6 5 8 7 5 4 5 3 1 0 2 3 5 6 6 6 6 6 6 6 7 8 8 8 9 10 10 10 10 10 11 12 12 12 12 12 12 12 12 11
-1 -2 -1 5 5 5 5 5 4 3 2 0 -1 -1 -1 -1 -0 1 1 1 1 2 2 3 4 4 4 3 3 4 7 8 10 11 10 10 9 8 8 9 9 11 11
-4 -2 -1 1 4 4 4 4 3 2 0 0 -0 -3 -4 -2 -2 -2 -2 -2 -2 -2 -2 -2 -3 -2 -1 -1 -2 -2 1 5 10 5 7 7 5 3 3 3 3 8 9
-4 -6 -3 -2 2 4 4 3 3 2 2 0 -3 -8 -11 -10 -9 -8 -9 -9 -9 -10 -10 -11 -12 -13 -14 -12 -10 -5 -2 -3 -7 2 1 -5 -6 -8 -9 -10 -7 -1 4
-4 -6 -10 -4 1 2 2 2 1 1 0 -3 -7 -14 -16 -16 -17 -18 -19 -22 -24 -28 -30 -32 -32 -31 -26 -17 -11 -5 -0 1 -0 -1 -8 -17 -21 -19 -20 -16 -6 -7 -1
-3 -4 -7 -9 -2 1 1 1 0 -2 -4 -6 -11 -15 -19 -21 -26 -31 -32 -33 -34 -33 -34 -33 -33 -32 -32 -30 -28 -18 -8 1 2 -1 -10 -17 -23 -24 -21 -16 -14 -19 -17
-2 -3 -8 -14 -8 -3 -2 -5 -8 -9 -7 -9 -12 -19 -28 -30 -31 -31 -33 -34 -34 -34 -34 -34 -34 -34 -33 -30 -26 -25 -25 -19 -14 -7 -7 -18 -20 -18 -15 -19 -21 -21 -19
-2 -3 -6 -12 -9 -8 -8 -9 -9 -10 -11 -14 -19 -26 -28 -30 -31 -31 -33 -33 -34 -33 -33 -33 -32 -33 -32 -29 -27 -23 -17 -11 -8 -3 -3 -7 -10 -15 -9 -18 -18 -15 -17